DELTA 1 DEB, 21296

Orbit data source: Space-Track

DELTA 1 DEB, 21296 is space debris in SSO originally from a launch on Thu, 12 Jun 1975 UTC launched from the Air Force Western Test Range (AFWTR). Debris objects in space refer to the collection of defunct objects orbiting the Earth. Examples of debris include non-operational satellites, rocket bodies, and fragments generated from explosions, collisions, or faulty payload assembly.

Loading next visibility...
Identifier
21296, 1975-052AH
Orbit
SSO
Country
Flag of USUS
Related business
Manufacturer
Unknown
Mission
Spacecraft
Bus & Motor
Unknown
Mass
Unknown
Launch date (UTC)
1975-06-12 (51 years ago)
Launch vehicle
Unknown
Launch site
Air Force Western Test Range (AFWTR)
Object type
Payload
Rocket body
Debris
Shape & HBR
Unknown shape, 0.1 m
Radar Cross Section
Small (<0.1 m²)

Expand to show TLE details & history
Last TLE update: 1 day ago

TLE from 1 day ago
0 DELTA 1 DEB
1 21296U 75052AH  26123.99356391  .00000279  00000-0  78881-3 0  9991
2 21296  99.5738 305.9453 0235680   9.0091 141.7909 13.10694895670500
Epoch: 2026-05-03T23:50Z
TLE epoch observation values (Epoch: 2026-05-03T23:50:43.921Z)
Latitude
27.18833°
Longitude
-88.68116°
Altitude
1,365.959 km
Speed
7.111 km/s
True Right ascension
08h 43m 33s
True Declination
27° 03' 35"
Sunlit
Object was in daylight at epoch
Visualization orbit readout
Latitude
Unknown
Longitude
Unknown
Altitude
Unknown
Speed
Unknown
Apparent Right ascension
Unknown
Apparent Declination
Unknown
Sunlit
N/A
Visualization observer readout
Local Sidereal Time
11:20:59
Azimuth
Unknown
Elevation
Unknown
Doppler factor
Unknown
Orbital elements
Apogee altitude
1,396.839 km
Perigee altitude
1,038.796 km
Semi-major axis
7,595.955 km
Eccentricity
0.02357
Inclination
99.5738°
RAAN
305.9453°
Arg. of periapsis
9.0091°
True anomaly
143.42332°
Mean anomaly
141.7909°
Eccentric anomaly
142.61086°
Mean motion
3.27846 °/min
Orbital period
109.81 mins
BSTAR
0.00078881
Loading maneuver chart data...
Computing Atmospheric mass density...
Loading historical data...
Loading historical data...
Loading historical data...
Loading historical data...
Loading historical data...
Loading historical data...
Loading historical data...

Documentation

Showing up to 5 results
|